Погода в Байконуре

Казахстан     47°49′26″N   66°02′44″E
темп.,
°C
ветер,
м/с
пор.,
м/с
влажн.,
%
обл.,
%
осадки,
мм/ч
давл.,
гПа
погр.,
м
2 марта, вт
вт200:00−10зсз2389100 0.0 102125
03:00−10зсз1291100 0.0 102121
06:00−12з2496100 0.0 102186
09:00−14з459998 0.0 102287
12:00−13з699599 0.1 1024366
15:00−12зюз6993100 0.0 1024468
18:00−11зюз5995100 0.1 1024491
21:00−13зюз4798100 0.1 1025132
3 марта, ср
ср300:00−14юз4598100 0.2 102673
03:00−15юз459997 0.0 102652
06:00−15юз459564 0.0 102653
09:00−12ю459528 0.0 102582
12:00−6ююз7119560 0.2 1024374
15:00−2ююз91394100 0.2 1022737
18:00−2ююз81391100 0.6 1021693
21:00−3ю7128798 0.0 1022331
4 марта, чт
чт400:00−4ю7138699 0.0 1021344
03:00−6ю7138896 0.0 1020228
06:00−6ююв7128649 0.0 1019199
09:00−6ю7138435 0.0 1017243
12:00−3ююз8139368 0.4 1016487
15:000ююз71197100 0.8 1015606
18:000з71098100 2.3 1015613
21:00−2з41098100 0.4 1016527
5 марта, пт
пт500:00−6зсз61195100 0.7 1020357
03:00−12зсз459767 0.0 102373
06:00−13зюз349971 0.0 102831
09:00−13юз449879 0.0 103055
12:00−7ююз6109265 0.0 1031370
15:00−5ююз69880 0.0 1030491
18:00−6ю48880 0.0 1029170
21:00−8ююв45840 0.0 102857
6 марта, сб
сб600:00−9ююв55856 0.0 102973
03:00−9ююв44870 0.0 102639
06:00−9ююв348322 0.0 102525
09:00−9юв3381100 0.0 102522
12:00−5юв348174 0.0 1024121
15:00−3вюв227987 0.0 1023122
18:00−5в227543 0.0 102221
21:00−8вюв34710 0.0 102321